AAL500 KDFW-KLAX

Flight info

Callsign AAL500
Flight time 3h 4m
Altitude 34000
Route KATZZ2 BRHMA CNX ONM SJN DRK J231 HIPPI GABBL HLYWD1
Aircraft A321/M-SDE3FGHIRWY/LB1

Departure

Time 2026-04-26 15:15
Airport Dallas Fort Worth International Airport (KDFW)

Arrival

Time 2026-04-26 18:19
Airport Los Angeles International Airport (KLAX)
Time Latitude Longitude Altitude Speed Heading
2026-04-26 14:51 32.90216 -97.04416 596 ft 0 kts 39°
2026-04-26 15:06 32.90211 -97.04421 596 ft 4 kts 39°
2026-04-26 15:06 32.90190 -97.04441 596 ft 4 kts 31°
2026-04-26 15:07 32.90147 -97.04446 596 ft 4 kts 337°
2026-04-26 15:07 32.90134 -97.04427 596 ft 3 kts 272°
2026-04-26 15:07 32.90134 -97.04402 596 ft 4 kts 270°
2026-04-26 15:08 32.90134 -97.04393 596 ft 0 kts 270°
2026-04-26 15:09 32.90134 -97.04398 596 ft 4 kts 270°
2026-04-26 15:10 32.90134 -97.04470 596 ft 13 kts 270°
2026-04-26 15:10 32.90134 -97.04546 597 ft 13 kts 270°
2026-04-26 15:10 32.90134 -97.04678 596 ft 11 kts 271°
2026-04-26 15:10 32.90147 -97.04753 597 ft 8 kts 322°
2026-04-26 15:11 32.90215 -97.04762 596 ft 15 kts 360°
2026-04-26 15:11 32.90299 -97.04763 597 ft 22 kts
2026-04-26 15:11 32.90521 -97.04761 597 ft 23 kts
2026-04-26 15:11 32.90626 -97.04760 597 ft 22 kts
2026-04-26 15:12 32.90772 -97.04759 598 ft 20 kts
2026-04-26 15:12 32.90897 -97.04759 602 ft 15 kts 360°
2026-04-26 15:12 32.91002 -97.04772 613 ft 19 kts 338°
2026-04-26 15:12 32.91136 -97.04792 611 ft 18 kts
2026-04-26 15:13 32.91262 -97.04792 615 ft 20 kts
2026-04-26 15:13 32.91417 -97.04791 616 ft 22 kts
2026-04-26 15:13 32.91492 -97.04865 620 ft 13 kts 273°
2026-04-26 15:13 32.91493 -97.04959 613 ft 10 kts 269°
2026-04-26 15:14 32.91488 -97.05058 621 ft 11 kts 249°
2026-04-26 15:14 32.91425 -97.05074 620 ft 10 kts 180°
2026-04-26 15:14 32.91256 -97.05075 620 ft 52 kts 180°
2026-04-26 15:14 32.90678 -97.05077 603 ft 112 kts 180°
2026-04-26 15:15 32.89733 -97.05083 603 ft 157 kts 180°
2026-04-26 15:15 32.88533 -97.05086 720 ft 183 kts 178°
2026-04-26 15:15 32.87277 -97.05094 1436 ft 180 kts 179°
2026-04-26 15:15 32.86027 -97.05107 2066 ft 180 kts 181°
2026-04-26 15:16 32.84768 -97.05126 2500 ft 186 kts 183°
2026-04-26 15:16 32.83403 -97.05153 2634 ft 205 kts 182°
2026-04-26 15:16 32.81903 -97.05184 2762 ft 228 kts 182°
2026-04-26 15:16 32.80267 -97.05221 3209 ft 238 kts 184°
2026-04-26 15:17 32.78589 -97.05257 3764 ft 244 kts 184°
2026-04-26 15:17 32.77458 -97.05279 4115 ft 247 kts 185°
2026-04-26 15:17 32.75127 -97.05329 4792 ft 255 kts 186°
2026-04-26 15:17 32.73341 -97.05413 5291 ft 257 kts 194°
2026-04-26 15:18 32.71693 -97.06142 5769 ft 253 kts 219°
2026-04-26 15:18 32.70483 -97.07642 6101 ft 256 kts 244°
2026-04-26 15:18 32.69906 -97.09653 6462 ft 260 kts 258°
2026-04-26 15:18 32.69494 -97.11764 6930 ft 264 kts 258°
2026-04-26 15:19 32.69166 -97.13906 7444 ft 265 kts 268°
2026-04-26 15:19 32.69241 -97.16094 7957 ft 267 kts 274°
2026-04-26 15:19 32.69376 -97.18293 8501 ft 267 kts 273°
2026-04-26 15:19 32.69505 -97.20499 9048 ft 269 kts 273°
2026-04-26 15:20 32.69635 -97.22723 9583 ft 271 kts 273°
2026-04-26 15:20 32.69765 -97.24962 10076 ft 272 kts 274°
2026-04-26 15:20 32.70064 -97.27173 10369 ft 282 kts 279°
2026-04-26 15:20 32.70459 -97.29524 10482 ft 298 kts 280°
2026-04-26 15:21 32.70881 -97.31998 10605 ft 313 kts 280°
2026-04-26 15:21 32.71324 -97.34589 10742 ft 328 kts 280°
2026-04-26 15:21 32.71787 -97.37298 10863 ft 341 kts 280°
2026-04-26 15:21 32.72266 -97.40111 10984 ft 354 kts 280°
2026-04-26 15:22 32.72756 -97.43017 11103 ft 364 kts 280°
2026-04-26 15:22 32.73260 -97.46010 11227 ft 374 kts 280°
2026-04-26 15:22 32.73773 -97.49062 11469 ft 379 kts 280°
2026-04-26 15:22 32.74287 -97.52135 11801 ft 380 kts 280°
2026-04-26 15:23 32.74802 -97.55223 12157 ft 381 kts 280°
2026-04-26 15:23 32.75319 -97.58313 12520 ft 382 kts 280°
2026-04-26 15:23 32.75829 -97.61369 12858 ft 383 kts 280°
2026-04-26 15:23 32.76345 -97.64472 13201 ft 383 kts 280°
2026-04-26 15:24 32.76862 -97.67587 13536 ft 384 kts 280°
2026-04-26 15:24 32.77376 -97.70705 13865 ft 385 kts 280°
2026-04-26 15:24 32.77898 -97.73829 14144 ft 386 kts 281°
2026-04-26 15:24 32.78520 -97.76934 14424 ft 388 kts 283°
2026-04-26 15:25 32.79234 -97.80037 14701 ft 390 kts 284°
2026-04-26 15:25 32.79736 -97.82088 14880 ft 391 kts 285°
2026-04-26 15:25 32.80777 -97.86243 15148 ft 393 kts 285°
2026-04-26 15:25 32.81553 -97.89362 15441 ft 395 kts 285°
2026-04-26 15:26 32.82317 -97.92507 15746 ft 396 kts 284°
2026-04-26 15:26 32.83064 -97.95667 16056 ft 398 kts 284°
2026-04-26 15:26 32.83801 -97.98851 16368 ft 400 kts 284°
2026-04-26 15:26 32.84536 -98.02045 16678 ft 402 kts 284°
2026-04-26 15:27 32.85266 -98.05215 16999 ft 403 kts 284°
2026-04-26 15:27 32.86010 -98.08442 17325 ft 405 kts 284°
2026-04-26 15:27 32.86759 -98.11680 17645 ft 407 kts 284°
2026-04-26 15:27 32.87512 -98.14938 17959 ft 409 kts 284°
2026-04-26 15:28 32.88270 -98.18212 18233 ft 412 kts 284°
2026-04-26 15:28 32.89030 -98.21499 18509 ft 413 kts 284°
2026-04-26 15:28 32.89792 -98.24795 18821 ft 413 kts 284°
2026-04-26 15:28 32.90554 -98.28098 19103 ft 414 kts 283°
2026-04-26 15:29 32.91319 -98.31407 19371 ft 415 kts 283°
2026-04-26 15:29 32.92083 -98.34723 19645 ft 416 kts 283°
2026-04-26 15:29 32.93617 -98.41381 20186 ft 418 kts 283°
2026-04-26 15:30 32.95150 -98.48076 20692 ft 421 kts 283°
2026-04-26 15:30 32.95920 -98.51445 20952 ft 422 kts 283°
2026-04-26 15:30 32.96692 -98.54825 21219 ft 424 kts 283°
2026-04-26 15:31 32.97465 -98.58212 21474 ft 425 kts 283°
2026-04-26 15:31 32.99017 -98.65025 21980 ft 427 kts 283°
2026-04-26 15:31 32.99796 -98.68445 22208 ft 428 kts 283°
2026-04-26 15:32 33.01091 -98.74153 22556 ft 430 kts 283°
2026-04-26 15:32 33.02118 -98.78709 22862 ft 431 kts 283°
2026-04-26 15:32 33.02894 -98.82159 23050 ft 432 kts 283°
2026-04-26 15:33 33.03671 -98.85620 23215 ft 433 kts 283°
2026-04-26 15:33 33.04452 -98.89086 23383 ft 433 kts 283°
2026-04-26 15:33 33.05233 -98.92546 23620 ft 431 kts 283°
2026-04-26 15:33 33.06008 -98.95986 23838 ft 429 kts 283°
2026-04-26 15:34 33.06782 -98.99422 24063 ft 428 kts 283°
2026-04-26 15:34 33.07551 -99.02843 24296 ft 427 kts 282°
2026-04-26 15:34 33.08316 -99.06255 24527 ft 425 kts 282°
2026-04-26 15:34 33.09077 -99.09662 24758 ft 424 kts 282°
2026-04-26 15:35 33.09835 -99.13061 24961 ft 424 kts 282°
2026-04-26 15:35 33.10590 -99.16452 25171 ft 423 kts 282°
2026-04-26 15:35 33.11344 -99.19842 25400 ft 422 kts 282°
2026-04-26 15:35 33.12095 -99.23219 25638 ft 421 kts 282°
2026-04-26 15:36 33.12842 -99.26585 25883 ft 419 kts 282°
2026-04-26 15:36 33.13587 -99.29941 26116 ft 418 kts 282°
2026-04-26 15:36 33.14315 -99.33241 26351 ft 416 kts 282°
2026-04-26 15:36 33.15050 -99.36579 26578 ft 415 kts 282°
2026-04-26 15:37 33.15781 -99.39903 26801 ft 414 kts 282°
2026-04-26 15:37 33.16512 -99.43221 27044 ft 413 kts 281°
2026-04-26 15:37 33.17241 -99.46527 27267 ft 411 kts 281°
2026-04-26 15:37 33.17967 -99.49823 27502 ft 410 kts 281°
2026-04-26 15:38 33.18691 -99.53110 27738 ft 409 kts 281°
2026-04-26 15:38 33.19411 -99.56389 27952 ft 407 kts 281°
2026-04-26 15:38 33.20124 -99.59653 28173 ft 406 kts 281°
2026-04-26 15:38 33.20844 -99.62910 28400 ft 405 kts 281°
2026-04-26 15:39 33.21576 -99.66152 28614 ft 404 kts 281°
2026-04-26 15:39 33.22317 -99.69386 28836 ft 403 kts 281°
2026-04-26 15:39 33.23058 -99.72606 29050 ft 402 kts 281°
2026-04-26 15:39 33.23548 -99.74735 29189 ft 401 kts 281°
2026-04-26 15:40 33.24522 -99.78982 29461 ft 400 kts 281°
2026-04-26 15:40 33.25249 -99.82178 29668 ft 399 kts 281°
2026-04-26 15:40 33.25971 -99.85374 29852 ft 398 kts 281°
2026-04-26 15:40 33.26689 -99.88562 30020 ft 397 kts 281°
2026-04-26 15:41 33.27404 -99.91744 30175 ft 396 kts 281°
2026-04-26 15:41 33.28116 -99.94924 30334 ft 396 kts 281°
2026-04-26 15:41 33.28824 -99.98102 30510 ft 395 kts 281°
2026-04-26 15:41 33.29532 -100.01274 30677 ft 395 kts 281°
2026-04-26 15:42 33.30242 -100.04447 30823 ft 395 kts 281°
2026-04-26 15:42 33.30951 -100.07614 30973 ft 395 kts 281°
2026-04-26 15:42 33.31658 -100.10783 31131 ft 394 kts 281°
2026-04-26 15:42 33.32363 -100.13946 31292 ft 394 kts 281°
2026-04-26 15:43 33.33066 -100.17107 31448 ft 393 kts 281°
2026-04-26 15:43 33.33769 -100.20265 31598 ft 393 kts 281°
2026-04-26 15:43 33.35166 -100.26541 31894 ft 393 kts 281°
2026-04-26 15:44 33.35866 -100.29698 32045 ft 393 kts 281°
2026-04-26 15:44 33.37263 -100.36007 32331 ft 392 kts 281°
2026-04-26 15:44 33.37961 -100.39158 32476 ft 392 kts 281°
2026-04-26 15:45 33.39347 -100.45459 32783 ft 391 kts 281°
2026-04-26 15:45 33.40039 -100.48604 32922 ft 391 kts 281°
2026-04-26 15:46 33.41420 -100.54889 33232 ft 390 kts 281°
2026-04-26 15:46 33.42106 -100.58027 33369 ft 389 kts 281°
2026-04-26 15:46 33.42789 -100.61158 33539 ft 389 kts 281°
2026-04-26 15:46 33.43243 -100.63230 33638 ft 388 kts 281°
2026-04-26 15:47 33.44158 -100.67409 33831 ft 387 kts 281°
2026-04-26 15:47 33.45520 -100.73676 33868 ft 390 kts 281°
2026-04-26 15:48 33.46880 -100.79930 33864 ft 390 kts 281°
2026-04-26 15:48 33.48242 -100.86233 33875 ft 390 kts 281°
2026-04-26 15:49 33.49604 -100.92520 33865 ft 390 kts 281°
2026-04-26 15:49 33.50961 -100.98814 33864 ft 390 kts 281°
2026-04-26 15:50 33.52312 -101.05110 33864 ft 390 kts 281°
2026-04-26 15:50 33.53612 -101.11426 33864 ft 390 kts 280°
2026-04-26 15:51 33.54872 -101.17753 33865 ft 390 kts 280°
2026-04-26 15:51 33.56128 -101.24041 33866 ft 390 kts 280°
2026-04-26 15:52 33.57396 -101.30371 33874 ft 390 kts 280°
2026-04-26 15:52 33.58673 -101.36694 33880 ft 390 kts 280°
2026-04-26 15:53 33.59937 -101.43007 33899 ft 389 kts 280°
2026-04-26 15:53 33.61192 -101.49316 33927 ft 389 kts 280°
2026-04-26 15:54 33.62444 -101.55623 33957 ft 389 kts 280°
2026-04-26 15:54 33.63695 -101.61933 33985 ft 388 kts 280°
2026-04-26 15:55 33.64945 -101.68240 34031 ft 388 kts 279°
2026-04-26 15:55 33.66185 -101.74541 34038 ft 387 kts 279°
2026-04-26 15:56 33.67412 -101.80808 34028 ft 386 kts 279°
2026-04-26 15:56 33.68631 -101.87035 34025 ft 386 kts 279°
2026-04-26 15:57 33.69859 -101.93309 34017 ft 386 kts 279°
2026-04-26 15:57 33.71079 -101.99589 33986 ft 386 kts 279°
2026-04-26 15:58 33.72297 -102.05875 33959 ft 386 kts 279°
2026-04-26 15:58 33.73519 -102.12164 33930 ft 386 kts 279°
2026-04-26 15:59 33.74737 -102.18450 33898 ft 386 kts 279°
2026-04-26 15:59 33.75946 -102.24735 33868 ft 386 kts 279°
2026-04-26 16:00 33.77146 -102.30990 33866 ft 386 kts 279°
2026-04-26 16:00 33.78353 -102.37280 33865 ft 386 kts 279°
2026-04-26 16:01 33.79555 -102.43567 33887 ft 386 kts 278°
2026-04-26 16:01 33.80751 -102.49859 33883 ft 386 kts 278°
2026-04-26 16:02 33.81940 -102.56149 33872 ft 386 kts 278°
2026-04-26 16:02 33.83127 -102.62440 33901 ft 386 kts 278°
2026-04-26 16:03 33.84307 -102.68688 33888 ft 386 kts 278°
2026-04-26 16:03 33.85492 -102.74978 33879 ft 386 kts 278°
2026-04-26 16:04 33.86676 -102.81275 33898 ft 385 kts 278°
2026-04-26 16:04 33.87851 -102.87566 33888 ft 385 kts 278°
2026-04-26 16:05 33.89022 -102.93854 33881 ft 385 kts 278°
2026-04-26 16:05 33.90192 -103.00144 33875 ft 385 kts 278°
2026-04-26 16:06 33.91359 -103.06440 33874 ft 385 kts 278°
2026-04-26 16:06 33.92510 -103.12686 33871 ft 385 kts 277°
2026-04-26 16:07 33.93669 -103.18971 33890 ft 385 kts 277°
2026-04-26 16:07 33.94826 -103.25257 33884 ft 384 kts 277°
2026-04-26 16:08 33.95980 -103.31541 33877 ft 384 kts 277°
2026-04-26 16:08 33.97127 -103.37828 33874 ft 384 kts 277°
2026-04-26 16:09 33.98267 -103.44109 33871 ft 384 kts 277°
2026-04-26 16:09 33.99410 -103.50398 33911 ft 384 kts 277°
2026-04-26 16:10 34.00538 -103.56624 33885 ft 382 kts 276°
2026-04-26 16:10 34.01664 -103.62878 33880 ft 382 kts 276°
2026-04-26 16:11 34.02788 -103.69128 33870 ft 381 kts 276°
2026-04-26 16:11 34.03909 -103.75377 33869 ft 381 kts 276°
2026-04-26 16:12 34.05023 -103.81632 33838 ft 381 kts 276°
2026-04-26 16:12 34.06507 -103.89951 33826 ft 381 kts 276°
2026-04-26 16:13 34.07620 -103.96201 33819 ft 381 kts 276°
2026-04-26 16:13 34.08906 -104.03460 33812 ft 380 kts 276°
2026-04-26 16:14 34.09821 -104.08690 33824 ft 380 kts 276°
2026-04-26 16:15 34.11448 -104.18014 33812 ft 380 kts 276°
2026-04-26 16:15 34.12543 -104.24255 33815 ft 380 kts 276°
2026-04-26 16:16 34.14180 -104.33638 33810 ft 381 kts 276°
2026-04-26 16:16 34.15262 -104.39905 33855 ft 381 kts 275°
2026-04-26 16:17 34.16345 -104.46168 33848 ft 381 kts 275°
2026-04-26 16:17 34.17428 -104.52434 33851 ft 381 kts 275°
2026-04-26 16:18 34.19032 -104.61788 33846 ft 381 kts 275°
2026-04-26 16:19 34.20633 -104.71188 33849 ft 381 kts 275°
2026-04-26 16:20 34.22238 -104.80590 33850 ft 381 kts 275°
2026-04-26 16:20 34.23833 -104.90001 33845 ft 381 kts 275°
2026-04-26 16:21 34.24888 -104.96273 33851 ft 381 kts 275°
2026-04-26 16:21 34.25934 -105.02510 33850 ft 381 kts 275°
2026-04-26 16:22 34.26984 -105.08795 33857 ft 381 kts 275°
2026-04-26 16:22 34.28035 -105.15082 33859 ft 381 kts 275°
2026-04-26 16:23 34.29077 -105.21368 33902 ft 381 kts 275°
2026-04-26 16:23 34.30118 -105.27653 33904 ft 380 kts 275°
2026-04-26 16:24 34.31158 -105.33916 33902 ft 379 kts 275°
2026-04-26 16:24 34.32191 -105.40133 33902 ft 379 kts 275°
2026-04-26 16:25 34.33218 -105.46383 33901 ft 379 kts 275°
2026-04-26 16:25 34.34235 -105.52633 33899 ft 378 kts 275°
2026-04-26 16:26 34.35252 -105.58880 33897 ft 378 kts 275°
2026-04-26 16:26 34.36268 -105.65128 33885 ft 378 kts 275°
2026-04-26 16:27 34.36639 -105.71386 33884 ft 371 kts 264°
2026-04-26 16:27 34.36505 -105.77628 33880 ft 371 kts 264°
2026-04-26 16:28 34.36370 -105.83879 33884 ft 371 kts 264°
2026-04-26 16:28 34.36238 -105.90090 33895 ft 371 kts 264°
2026-04-26 16:29 34.36097 -105.96341 33890 ft 371 kts 264°
2026-04-26 16:29 34.35955 -106.02594 33912 ft 371 kts 264°
2026-04-26 16:30 34.35808 -106.08825 33919 ft 370 kts 264°
2026-04-26 16:30 34.35663 -106.15047 33918 ft 369 kts 264°
2026-04-26 16:31 34.35517 -106.21263 33898 ft 369 kts 264°
2026-04-26 16:31 34.35365 -106.27470 33895 ft 369 kts 264°
2026-04-26 16:32 34.35236 -106.32625 33891 ft 369 kts 264°
2026-04-26 16:32 34.35051 -106.39834 33899 ft 369 kts 264°
2026-04-26 16:33 34.34889 -106.46033 33891 ft 368 kts 264°
2026-04-26 16:33 34.34726 -106.52226 33874 ft 368 kts 264°
2026-04-26 16:34 34.34558 -106.58413 33876 ft 368 kts 264°
2026-04-26 16:34 34.34381 -106.64606 33859 ft 368 kts 264°
2026-04-26 16:35 34.34205 -106.70790 33908 ft 368 kts 264°
2026-04-26 16:35 34.34032 -106.76903 33862 ft 364 kts 264°
2026-04-26 16:36 34.33923 -106.83037 33843 ft 367 kts 268°
2026-04-26 16:36 34.34211 -106.89201 33870 ft 367 kts 268°
2026-04-26 16:37 34.34499 -106.95371 33863 ft 367 kts 268°
2026-04-26 16:37 34.34729 -107.00504 33855 ft 368 kts 268°
2026-04-26 16:38 34.35046 -107.07723 33828 ft 367 kts 268°
2026-04-26 16:38 34.35310 -107.13893 33832 ft 367 kts 268°
2026-04-26 16:39 34.35572 -107.20064 33835 ft 367 kts 268°
2026-04-26 16:39 34.35845 -107.26234 33835 ft 367 kts 268°
2026-04-26 16:40 34.36109 -107.32358 33833 ft 367 kts 268°
2026-04-26 16:40 34.36366 -107.38524 33836 ft 367 kts 268°
2026-04-26 16:41 34.36620 -107.44691 33856 ft 366 kts 268°
2026-04-26 16:41 34.36869 -107.50837 33855 ft 365 kts 268°
2026-04-26 16:42 34.37115 -107.56961 33849 ft 364 kts 268°
2026-04-26 16:42 34.37357 -107.63084 33850 ft 364 kts 267°
2026-04-26 16:43 34.37592 -107.69159 33849 ft 363 kts 267°
2026-04-26 16:43 34.37829 -107.75262 33879 ft 363 kts 267°
2026-04-26 16:44 34.38065 -107.81356 33869 ft 362 kts 267°
2026-04-26 16:44 34.38294 -107.87429 33861 ft 361 kts 267°
2026-04-26 16:45 34.38515 -107.93491 33851 ft 360 kts 267°
2026-04-26 16:45 34.38739 -107.99542 33848 ft 360 kts 267°
2026-04-26 16:46 34.38966 -108.05596 33843 ft 359 kts 267°
2026-04-26 16:46 34.39187 -108.11632 33854 ft 358 kts 267°
2026-04-26 16:47 34.39394 -108.17613 33852 ft 357 kts 267°
2026-04-26 16:47 34.39597 -108.23629 33847 ft 358 kts 267°
2026-04-26 16:48 34.39806 -108.29643 33839 ft 358 kts 267°
2026-04-26 16:48 34.40013 -108.35663 33839 ft 358 kts 267°
2026-04-26 16:49 34.40214 -108.41682 33840 ft 358 kts 267°
2026-04-26 16:49 34.40411 -108.47674 33857 ft 354 kts 267°
2026-04-26 16:50 34.40604 -108.53611 33853 ft 352 kts 267°
2026-04-26 16:50 34.40790 -108.59499 33852 ft 352 kts 266°
2026-04-26 16:51 34.40971 -108.65415 33845 ft 352 kts 266°
2026-04-26 16:51 34.41155 -108.71333 33843 ft 352 kts 266°
2026-04-26 16:52 34.41306 -108.76256 33841 ft 352 kts 266°
2026-04-26 16:52 34.41516 -108.83173 33840 ft 352 kts 266°
2026-04-26 16:53 34.41690 -108.89091 33842 ft 352 kts 266°
2026-04-26 16:53 34.41864 -108.95015 33843 ft 352 kts 266°
2026-04-26 16:54 34.42031 -109.00894 33849 ft 352 kts 266°
2026-04-26 16:54 34.42190 -109.06810 33852 ft 351 kts 266°
2026-04-26 16:55 34.42351 -109.12726 33873 ft 351 kts 266°
2026-04-26 16:55 34.42676 -109.18654 33883 ft 355 kts 270°
2026-04-26 16:56 34.43634 -109.27571 33894 ft 356 kts 271°
2026-04-26 16:57 34.44259 -109.33520 33890 ft 356 kts 270°
2026-04-26 16:57 34.45111 -109.42444 33883 ft 355 kts 270°
2026-04-26 16:58 34.45389 -109.45419 34044 ft 355 kts 270°
2026-04-26 16:58 34.45573 -109.47389 34016 ft 355 kts 270°
2026-04-26 16:59 34.46503 -109.57296 33979 ft 356 kts 270°
2026-04-26 17:00 34.47617 -109.69239 33875 ft 357 kts 270°
2026-04-26 17:00 34.48447 -109.78203 33880 ft 357 kts 270°
2026-04-26 17:01 34.48999 -109.84182 33918 ft 356 kts 270°
2026-04-26 17:01 34.49537 -109.90105 33915 ft 355 kts 270°
2026-04-26 17:02 34.50078 -109.96063 33925 ft 355 kts 270°
2026-04-26 17:02 34.50611 -110.02004 33921 ft 355 kts 270°
2026-04-26 17:03 34.51148 -110.07946 33929 ft 354 kts 270°
2026-04-26 17:03 34.51682 -110.13882 33940 ft 354 kts 270°
2026-04-26 17:04 34.52211 -110.19822 33932 ft 355 kts 270°
2026-04-26 17:04 34.52730 -110.25729 33948 ft 355 kts 270°
2026-04-26 17:05 34.53252 -110.31679 33938 ft 355 kts 269°
2026-04-26 17:05 34.53768 -110.37633 33952 ft 355 kts 269°
2026-04-26 17:06 34.54283 -110.43589 33940 ft 355 kts 269°
2026-04-26 17:06 34.54798 -110.49545 33953 ft 355 kts 269°
2026-04-26 17:07 34.55311 -110.55509 33941 ft 356 kts 269°
2026-04-26 17:07 34.55822 -110.61491 33954 ft 357 kts 269°
2026-04-26 17:08 34.56329 -110.67481 33932 ft 357 kts 269°
2026-04-26 17:08 34.56838 -110.73475 33934 ft 357 kts 269°
2026-04-26 17:09 34.57173 -110.77446 33956 ft 357 kts 269°
2026-04-26 17:09 34.57841 -110.85403 33951 ft 352 kts 268°
2026-04-26 17:10 34.58329 -110.91319 33963 ft 352 kts 268°
2026-04-26 17:10 34.58812 -110.97236 33964 ft 352 kts 268°
2026-04-26 17:11 34.59291 -111.03155 33967 ft 353 kts 268°
2026-04-26 17:11 34.59773 -111.09081 33968 ft 353 kts 268°
2026-04-26 17:12 34.60498 -111.17941 33985 ft 353 kts 268°
2026-04-26 17:13 34.61208 -111.26790 33970 ft 350 kts 268°
2026-04-26 17:14 34.61903 -111.35617 33970 ft 351 kts 268°
2026-04-26 17:14 34.62602 -111.44461 33959 ft 351 kts 268°
2026-04-26 17:15 34.63207 -111.52320 33961 ft 351 kts 267°
2026-04-26 17:16 34.63661 -111.58224 33991 ft 351 kts 268°
2026-04-26 17:16 34.64120 -111.64132 34004 ft 351 kts 268°
2026-04-26 17:17 34.64573 -111.70043 34016 ft 352 kts 267°
2026-04-26 17:17 34.65020 -111.75956 34022 ft 352 kts 267°
2026-04-26 17:18 34.65467 -111.81870 34006 ft 352 kts 267°
2026-04-26 17:18 34.65913 -111.87795 34000 ft 353 kts 267°
2026-04-26 17:19 34.66569 -111.96677 33984 ft 354 kts 267°
2026-04-26 17:19 34.67006 -112.02635 33972 ft 354 kts 267°
2026-04-26 17:20 34.67366 -112.07584 33961 ft 354 kts 267°
2026-04-26 17:20 34.67877 -112.14532 34008 ft 352 kts 268°
2026-04-26 17:21 34.68306 -112.20461 34021 ft 353 kts 268°
2026-04-26 17:21 34.68728 -112.26400 34053 ft 353 kts 267°
2026-04-26 17:22 34.69145 -112.32346 34078 ft 353 kts 268°
2026-04-26 17:22 34.69570 -112.38262 34070 ft 354 kts 268°
2026-04-26 17:23 34.69994 -112.44220 34079 ft 354 kts 267°
2026-04-26 17:23 34.70020 -112.50133 33909 ft 346 kts 257°
2026-04-26 17:24 34.69327 -112.55930 33910 ft 347 kts 257°
2026-04-26 17:24 34.68644 -112.61743 33920 ft 348 kts 258°
2026-04-26 17:25 34.67961 -112.67564 33919 ft 348 kts 258°
2026-04-26 17:25 34.67286 -112.73347 33930 ft 348 kts 258°
2026-04-26 17:26 34.66596 -112.79168 33924 ft 348 kts 257°
2026-04-26 17:26 34.65899 -112.85002 33926 ft 349 kts 257°
2026-04-26 17:27 34.65202 -112.90838 33936 ft 349 kts 257°
2026-04-26 17:27 34.64502 -112.96684 33935 ft 350 kts 257°
2026-04-26 17:28 34.63798 -113.02529 33935 ft 350 kts 257°
2026-04-26 17:28 34.63092 -113.08379 33947 ft 350 kts 257°
2026-04-26 17:29 34.62497 -113.13247 33956 ft 351 kts 257°
2026-04-26 17:29 34.61666 -113.20066 33956 ft 352 kts 257°
2026-04-26 17:30 34.60946 -113.25948 33954 ft 352 kts 257°
2026-04-26 17:30 34.60225 -113.31834 33950 ft 353 kts 257°
2026-04-26 17:31 34.59501 -113.37724 33950 ft 353 kts 257°
2026-04-26 17:31 34.58770 -113.43608 33951 ft 353 kts 257°
2026-04-26 17:32 34.58037 -113.49489 33955 ft 353 kts 257°
2026-04-26 17:32 34.57296 -113.55375 33953 ft 353 kts 257°
2026-04-26 17:33 34.56552 -113.61267 33949 ft 353 kts 257°
2026-04-26 17:34 34.55502 -113.70122 33945 ft 354 kts 258°
2026-04-26 17:34 34.54873 -113.76046 33956 ft 354 kts 258°
2026-04-26 17:35 34.54230 -113.81976 33950 ft 355 kts 258°
2026-04-26 17:35 34.53568 -113.87912 33954 ft 355 kts 258°
2026-04-26 17:36 34.52905 -113.93809 33954 ft 356 kts 258°
2026-04-26 17:36 34.52228 -113.99751 33971 ft 356 kts 258°
2026-04-26 17:37 34.51527 -114.05684 33989 ft 354 kts 255°
2026-04-26 17:37 34.50324 -114.11466 34002 ft 354 kts 253°
2026-04-26 17:38 34.48487 -114.20151 34022 ft 355 kts 253°
2026-04-26 17:38 34.47263 -114.25946 34032 ft 355 kts 253°
2026-04-26 17:39 34.46033 -114.31738 34038 ft 355 kts 253°
2026-04-26 17:39 34.44797 -114.37533 33957 ft 355 kts 253°
2026-04-26 17:40 34.43769 -114.42352 33978 ft 355 kts 253°
2026-04-26 17:40 34.42315 -114.49136 33970 ft 356 kts 253°
2026-04-26 17:41 34.41070 -114.54946 33978 ft 357 kts 253°
2026-04-26 17:41 34.39832 -114.60725 33978 ft 357 kts 253°
2026-04-26 17:42 34.38571 -114.66549 33990 ft 357 kts 253°
2026-04-26 17:42 34.37311 -114.72368 33988 ft 357 kts 253°
2026-04-26 17:43 34.36048 -114.78194 33996 ft 358 kts 253°
2026-04-26 17:43 34.34785 -114.84015 33998 ft 358 kts 253°
2026-04-26 17:44 34.33523 -114.89800 33994 ft 358 kts 253°
2026-04-26 17:44 34.32250 -114.95626 33995 ft 358 kts 253°
2026-04-26 17:45 34.30972 -115.01446 33998 ft 358 kts 253°
2026-04-26 17:45 34.29697 -115.07272 33995 ft 359 kts 253°
2026-04-26 17:46 34.28411 -115.13102 33996 ft 359 kts 253°
2026-04-26 17:46 34.27116 -115.18931 34001 ft 359 kts 253°
2026-04-26 17:47 34.26042 -115.23788 34002 ft 360 kts 253°
2026-04-26 17:47 34.24595 -115.30594 34003 ft 360 kts 253°
2026-04-26 17:48 34.23359 -115.36456 34002 ft 360 kts 253°
2026-04-26 17:48 34.22106 -115.42330 34001 ft 361 kts 253°
2026-04-26 17:49 34.20850 -115.48199 33997 ft 361 kts 253°
2026-04-26 17:49 34.19579 -115.54075 34012 ft 362 kts 252°
2026-04-26 17:50 34.18273 -115.59941 34011 ft 362 kts 253°
2026-04-26 17:50 34.17022 -115.65830 34025 ft 362 kts 253°
2026-04-26 17:51 34.16098 -115.71822 34017 ft 365 kts 260°
2026-04-26 17:51 34.15520 -115.77928 34041 ft 366 kts 259°
2026-04-26 17:52 34.14929 -115.84009 34044 ft 367 kts 259°
2026-04-26 17:52 34.14332 -115.90144 34055 ft 368 kts 259°
2026-04-26 17:53 34.13733 -115.96295 34079 ft 369 kts 260°
2026-04-26 17:54 34.12823 -116.05547 33759 ft 369 kts 260°
2026-04-26 17:54 34.12521 -116.08634 32803 ft 372 kts 260°
2026-04-26 17:54 34.12214 -116.11756 31792 ft 377 kts 260°
2026-04-26 17:54 34.11902 -116.14920 30793 ft 382 kts 261°
2026-04-26 17:55 34.11584 -116.18130 29729 ft 388 kts 261°
2026-04-26 17:55 34.11263 -116.21361 28867 ft 387 kts 261°
2026-04-26 17:55 34.10942 -116.24580 28111 ft 385 kts 261°
2026-04-26 17:55 34.10624 -116.27779 27334 ft 383 kts 261°
2026-04-26 17:56 34.10305 -116.30962 26609 ft 381 kts 261°
2026-04-26 17:56 34.09646 -116.37231 25238 ft 377 kts 261°
2026-04-26 17:57 34.08972 -116.43474 23937 ft 373 kts 261°
2026-04-26 17:57 34.08641 -116.46546 23900 ft 366 kts 261°
2026-04-26 17:57 34.08321 -116.49533 23938 ft 356 kts 261°
2026-04-26 17:57 34.08001 -116.52484 23942 ft 353 kts 261°
2026-04-26 17:58 34.07051 -116.61260 23542 ft 349 kts 262°
2026-04-26 17:59 34.06509 -116.67054 22162 ft 345 kts 263°
2026-04-26 17:59 34.06256 -116.69923 21547 ft 343 kts 263°
2026-04-26 17:59 34.06005 -116.72769 20948 ft 341 kts 263°
2026-04-26 17:59 34.05750 -116.75598 20382 ft 338 kts 263°
2026-04-26 18:00 34.05494 -116.78372 19805 ft 336 kts 263°
2026-04-26 18:00 34.05232 -116.81164 19270 ft 334 kts 263°
2026-04-26 18:00 34.04971 -116.83938 18995 ft 333 kts 263°
2026-04-26 18:00 34.04707 -116.86718 18715 ft 333 kts 263°
2026-04-26 18:01 34.04440 -116.89489 18442 ft 332 kts 263°
2026-04-26 18:01 34.04126 -116.92236 18122 ft 330 kts 262°
2026-04-26 18:01 34.03771 -116.94965 17771 ft 328 kts 261°
2026-04-26 18:01 34.03402 -116.97672 17417 ft 327 kts 261°
2026-04-26 18:02 34.03031 -117.00369 17089 ft 325 kts 261°
2026-04-26 18:02 34.02907 -117.01275 16977 ft 325 kts 261°
2026-04-26 18:02 34.02322 -117.05726 16421 ft 322 kts 262°
2026-04-26 18:02 34.02003 -117.08390 16095 ft 320 kts 263°
2026-04-26 18:03 34.01694 -117.11042 15821 ft 319 kts 263°
2026-04-26 18:03 34.01387 -117.13686 15547 ft 318 kts 263°
2026-04-26 18:03 34.01080 -117.16319 15276 ft 317 kts 263°
2026-04-26 18:03 34.00771 -117.18941 15062 ft 315 kts 264°
2026-04-26 18:04 34.00463 -117.21553 14794 ft 314 kts 264°
2026-04-26 18:04 34.00153 -117.24153 14530 ft 313 kts 264°
2026-04-26 18:04 33.99841 -117.26746 14267 ft 312 kts 264°
2026-04-26 18:05 33.99222 -117.31900 13715 ft 310 kts 264°
2026-04-26 18:05 33.98919 -117.34467 13439 ft 309 kts 264°
2026-04-26 18:05 33.98622 -117.37027 13148 ft 308 kts 264°
2026-04-26 18:05 33.98326 -117.39574 12859 ft 307 kts 264°
2026-04-26 18:06 33.98029 -117.42112 12571 ft 305 kts 264°
2026-04-26 18:06 33.97729 -117.44642 12285 ft 303 kts 264°
2026-04-26 18:06 33.97435 -117.47114 12021 ft 293 kts 265°
2026-04-26 18:06 33.97400 -117.49510 11756 ft 281 kts 277°
2026-04-26 18:07 33.97747 -117.51781 11504 ft 272 kts 282°
2026-04-26 18:07 33.98139 -117.53978 11275 ft 266 kts 282°
2026-04-26 18:07 33.98526 -117.56147 11021 ft 264 kts 282°
2026-04-26 18:07 33.98652 -117.56850 10942 ft 264 kts 282°
2026-04-26 18:08 33.99296 -117.60463 10529 ft 263 kts 282°
2026-04-26 18:08 33.99674 -117.62584 10297 ft 262 kts 282°
2026-04-26 18:08 34.00054 -117.64726 10049 ft 262 kts 282°
2026-04-26 18:08 34.00430 -117.66868 9794 ft 261 kts 281°
2026-04-26 18:09 34.00583 -117.69041 9531 ft 261 kts 269°
2026-04-26 18:09 34.00397 -117.71220 9260 ft 261 kts 264°
2026-04-26 18:09 34.00182 -117.73392 8997 ft 261 kts 264°
2026-04-26 18:09 33.99971 -117.75567 8725 ft 261 kts 264°
2026-04-26 18:10 33.99759 -117.77734 8471 ft 260 kts 264°
2026-04-26 18:10 33.99547 -117.79898 8215 ft 260 kts 264°
2026-04-26 18:10 33.99335 -117.82060 7962 ft 260 kts 264°
2026-04-26 18:10 33.99123 -117.84215 7706 ft 258 kts 264°
2026-04-26 18:11 33.98983 -117.85635 7537 ft 258 kts 264°
2026-04-26 18:11 33.98774 -117.87786 7277 ft 259 kts 264°
2026-04-26 18:11 33.98565 -117.89939 6986 ft 258 kts 264°
2026-04-26 18:11 33.98357 -117.92083 6716 ft 257 kts 264°
2026-04-26 18:12 33.98149 -117.94224 6447 ft 258 kts 264°
2026-04-26 18:12 33.97940 -117.96365 6163 ft 256 kts 264°
2026-04-26 18:12 33.97726 -117.98487 5877 ft 253 kts 263°
2026-04-26 18:12 33.97517 -118.00555 5660 ft 243 kts 264°
2026-04-26 18:13 33.97322 -118.02524 5515 ft 231 kts 264°
2026-04-26 18:13 33.97137 -118.04398 5401 ft 223 kts 263°
2026-04-26 18:13 33.96953 -118.06256 5301 ft 222 kts 264°
2026-04-26 18:13 33.96832 -118.07476 5146 ft 222 kts 264°
2026-04-26 18:14 33.96590 -118.09916 4789 ft 215 kts 264°
2026-04-26 18:14 33.96413 -118.11688 4497 ft 210 kts 264°
2026-04-26 18:14 33.96243 -118.13391 4222 ft 205 kts 264°
2026-04-26 18:14 33.96075 -118.15076 3942 ft 200 kts 264°
2026-04-26 18:15 33.95911 -118.16717 3673 ft 195 kts 263°
2026-04-26 18:15 33.95751 -118.18314 3433 ft 190 kts 264°
2026-04-26 18:15 33.95595 -118.19873 3184 ft 184 kts 263°
2026-04-26 18:15 33.95445 -118.21371 2937 ft 176 kts 263°
2026-04-26 18:16 33.95299 -118.22820 2698 ft 172 kts 263°
2026-04-26 18:16 33.95020 -118.25589 2248 ft 163 kts 263°
2026-04-26 18:16 33.94884 -118.26939 2030 ft 161 kts 262°
2026-04-26 18:17 33.94750 -118.28266 1805 ft 159 kts 263°
2026-04-26 18:17 33.94616 -118.29590 1600 ft 160 kts 263°
2026-04-26 18:17 33.94483 -118.30912 1386 ft 156 kts 263°
2026-04-26 18:17 33.94357 -118.32152 1185 ft 143 kts 263°
2026-04-26 18:18 33.94242 -118.33291 986 ft 133 kts 263°
2026-04-26 18:18 33.94129 -118.34402 799 ft 133 kts 264°
2026-04-26 18:18 33.94017 -118.35507 621 ft 134 kts 265°
2026-04-26 18:18 33.93909 -118.36626 405 ft 134 kts 264°
2026-04-26 18:19 33.93789 -118.37743 228 ft 133 kts 264°
2026-04-26 18:19 33.93683 -118.38817 103 ft 127 kts 264°
2026-04-26 18:19 33.93586 -118.39753 94 ft 89 kts 263°
2026-04-26 18:19 33.93535 -118.40277 97 ft 41 kts 266°
2026-04-26 18:20 33.93561 -118.40539 96 ft 27 kts 289°
2026-04-26 18:20 33.93598 -118.40699 94 ft 15 kts 271°
2026-04-26 18:20 33.93594 -118.40795 94 ft 10 kts 275°
2026-04-26 18:20 33.93608 -118.40846 94 ft 9 kts 290°
2026-04-26 18:21 33.93685 -118.40898 96 ft 15 kts 352°
2026-04-26 18:21 33.93792 -118.40914 94 ft 13 kts 353°
2026-04-26 18:21 33.93853 -118.40917 94 ft 8 kts 17°
2026-04-26 18:21 33.93873 -118.40859 93 ft 10 kts 81°
2026-04-26 18:22 33.93886 -118.40745 95 ft 14 kts 83°
2026-04-26 18:22 33.93897 -118.40637 97 ft 12 kts 83°
2026-04-26 18:22 33.93911 -118.40551 94 ft 8 kts 55°
2026-04-26 18:22 33.93962 -118.40543 94 ft 7 kts 354°
2026-04-26 18:23 33.93992 -118.40579 94 ft 6 kts 297°
2026-04-26 18:23 33.94001 -118.40601 95 ft 1 kts 295°
2026-04-26 18:23 33.94002 -118.40605 95 ft 0 kts 295°